Weather History for Decimomannu, Italy

Change the Weather History Date:

Wednesday, April 10, 2013

  Actual Average Record
Temperature  
Mean Temperature 56 °F -  
Max Temperature 70 °F 70 °F 80 °F (2011)
Min Temperature 43 °F 48 °F 38 °F (2012)
Degree Days  
Heating Degree Days 8    
Growing Degree Days 6 (Base 50)    
Moisture  
Dew Point 50 °F    
Average Humidity 75    
Maximum Humidity 94    
Minimum Humidity 34    
Precipitation  
Precipitation 0.00 in 0.05 in - ()
Sea Level Pressure  
Sea Level Pressure 29.99 in    
Wind  
Wind Speed 4 mph ()    
Max Wind Speed 15 mph    
Max Gust Speed -    
Visibility 7.0 miles    
Events      
Averages and records for this station are not official NWS values.
T = Trace of Precipitation, MM = Missing Value Source: Averaged Metar Reports

Daily Weather History Graph

Daily Weather History Graph

Search for Another Location

Airport:

Trip Planner

Search our weather history database for the weather conditions in past years. The results will help you decide how hot, cold, wet, or windy it might be!

Date:

Astronomy

Apr. 10, 2013 Rise Set
Actual Time 6:54 AM CEST 7:56 PM CEST
Civil Twilight 6:27 AM CEST 8:24 PM CEST
Nautical Twilight 5:54 AM CEST 8:57 PM CEST
Astronomical Twilight 5:20 AM CEST 9:31 PM CEST
Moon 6:41 AM CEST (4/10) 8:16 PM CEST (4/10)
Length of Visible Light 13h 57m
Length of Day
13h 02m
New Moon, 0% of the Moon is Illuminated
Apr 10
New Moon
Apr 18
First Quarter
Apr 25
Full
May 2
Last Quarter
May 10
New

Hourly Weather History & Observations

Time (CEST) Temp. Windchill Dew Point Humidity Pressure Visibility Wind Dir Wind Speed Gust Speed Precip Events Conditions
12:55 AM 53.6 °F - 50.0 °F 88% 29.95 in 6.2 mi Calm Calm - N/A   Partly Cloudy
1:55 AM 50.0 °F - 46.4 °F 87% 29.95 in 6.2 mi East 4.6 mph - N/A   Partly Cloudy
2:00 AM 50 °F - 47 °F 84% 29.97 in 7 mi East 4.6 mph - -   Scattered Clouds
3:55 AM 46.4 °F 42.4 °F 42.8 °F 87% 29.95 in 6.2 mi South 8.1 mph - N/A   Partly Cloudy
4:55 AM 48.2 °F - 44.6 °F 87% 29.95 in 6.2 mi NNE 4.6 mph - N/A   Partly Cloudy
5:00 AM 48 °F - 44 °F 82% 29.96 in 10 mi NNE 4.6 mph - -   Scattered Clouds
5:55 AM 46.4 °F 45.2 °F 42.8 °F 87% 29.95 in 6.2 mi NE 3.5 mph - N/A   Partly Cloudy
6:55 AM 44.6 °F 41.4 °F 41.0 °F 87% 29.95 in 6.2 mi North 5.8 mph - N/A   Partly Cloudy
7:55 AM 44.6 °F - 41.0 °F 87% 29.98 in 6.2 mi NNE 2.3 mph - N/A   Partly Cloudy
8:00 AM 45 °F - 41 °F 82% 30.00 in 7 mi NNE 2.3 mph - -   Scattered Clouds
8:55 AM 50.0 °F - 44.6 °F 82% 30.01 in 6.2 mi Calm Calm - N/A   Partly Cloudy
9:55 AM 57.2 °F - 51.8 °F 82% 30.01 in 6.2 mi NW 3.5 mph - N/A   Partly Cloudy
10:55 AM 60.8 °F - 53.6 °F 77% 30.01 in 6.2 mi North 2.3 mph - N/A   Partly Cloudy
11:00 AM 60 °F - 53 °F 70% 30.02 in 12 mi North 2.3 mph - -   Scattered Clouds
12:55 PM 66.2 °F - 51.8 °F 60% 30.01 in 6.2 mi North 4.6 mph - N/A   Partly Cloudy
1:55 PM 68.0 °F - 55.4 °F 64% 29.98 in 6.2 mi NNW 4.6 mph - N/A   Partly Cloudy
2:00 PM 69 °F - 55 °F 51% 30.00 in 12 mi NNW 4.6 mph - -   Scattered Clouds
2:55 PM 69.8 °F - 55.4 °F 60% 29.98 in 6.2 mi West 11.5 mph - N/A   Scattered Clouds
3:55 PM 69.8 °F - 51.8 °F 53% 29.98 in 6.2 mi West 15.0 mph - N/A   Scattered Clouds
4:55 PM 68.0 °F - 46.4 °F 46% 29.98 in 6.2 mi WSW 11.5 mph - N/A   Scattered Clouds
5:00 PM 68 °F - 46 °F 34% 29.99 in 12 mi WSW 11.5 mph - -   Partly Cloudy
5:55 PM 66.2 °F - 50.0 °F 56% 29.98 in 6.2 mi West 9.2 mph - N/A   Partly Cloudy
6:55 PM 64.4 °F - 51.8 °F 64% 29.98 in 6.2 mi West 8.1 mph - N/A   Partly Cloudy
7:55 PM 62.6 °F - 57.2 °F 82% 29.98 in 6.2 mi North 4.6 mph - N/A   Partly Cloudy
8:00 PM 62 °F - 57 °F 80% 30.00 in 7 mi North 4.6 mph - -   Scattered Clouds
8:55 PM 59.0 °F - 55.4 °F 88% 30.01 in 6.2 mi Calm Calm - N/A   Partly Cloudy
9:55 PM 57.2 °F - 53.6 °F 88% 30.01 in 6.2 mi WNW 5.8 mph - N/A   Partly Cloudy
10:55 PM 55.4 °F - 51.8 °F 88% 30.04 in 6.2 mi WNW 9.2 mph - N/A   Partly Cloudy
11:00 PM 55 °F - 52 °F 87% 30.04 in 6 mi WNW 9.2 mph - -   Scattered Clouds
11:55 PM 53.6 °F - 51.8 °F 94% 30.04 in 6.2 mi WNW 5.8 mph - N/A   Partly Cloudy